星链-32115 (STARLINK-32115 )

导读

STARLINK-32115是美国太空探索技术公司Starlink星链互联网星座的卫星,星链项目旨在构建全球卫星互联网覆盖网络,为全球用户提供高速互联网服务。该卫星于2024年6月19日发射入轨,加入规模庞大的星链星座组网,是星链低轨卫星星座部署扩张进程中的组成部分。

基本信息
目录编号:
60074
目录名称:
STARLINK-32115
国际标识:
2024-113R
轨道中心:
EARTH
卫星名称:
星链-32115
卫星全名:
星链-32115 (STARLINK-32115 )
卫星状态:
已陨落 最后检测时间 2024-07-13
发射日期:
2024-06-19 UTC
国别 :
美国 (US)
星等 :
--
该卫星已列入 空间交会检测服务 Space Conjunction Data Service (SCDS) ,当前飞行风险评估等级: 无高风险
轨道信息
数据来源 国际轨道数据
星历时间: 2024-07-13T12:01:23+0800
轨道信息已过期791天
半长轴: 6536.474km
偏心率: 0.0010845
轨道倾角: 53.149°
近地点辐角 302.653°
升交点赤经 289.586°
平近点角 159.763°
近地点: 151.25km
远地点: 165.428km
周期: 87.655分钟
每日圈数: 16.428107
详细信息
固有亮度:
5
最大亮度:
1.5
卫星平台:
Starlink v2.0 mini
覆盖范围:
全球
运营商:
太空探索技术公司
运营商所在国:
美国
制造商(研发单位):
太空探索技术公司
制造商所在国:
美国
使用方式:
暂无
卫星简介
星链(Starlink)计划是由太空探索技术公司(SpaceX)提出的一个巨型低轨卫星互联网星座项目,计划在2019年至2024年间在太空搭建由约1.2万颗卫星组成的“星链”网络,其中1584颗将部署在地球上空550千米处的近地轨道,并从2020年开始工作。该卫星仍在工作。
与全量物体交会距离演化趋势
与全量物体交会风险概率演化趋势